Tracking 22438 objects as of 25-Feb-2021
HD Live streaming from Space Station
objects crossing your sky now

AQT-D

Track AQT-D now!
10-day predictions
AQT-D is classified as:


NORAD ID: 44791
Int'l Code: 1998-067QU
Perigee: 399.3 km
Apogee: 407.4 km
Inclination: 51.6 °
Period: 92.5 minutes
Semi major axis: 6774 km
RCS: Unknown
Launch date: November 20, 1998
Source: Japan (JPN)
Launch site: TYURATAM MISSILE AND SPACE COMPLEX (TTMTR)

Uplink (MHz):
Downlink (MHz):
Beacon (MHz):
Mode:
Call sign:
Status: Unknown

aabbcc
Your satellite tracking list
Your tracking list is empty




NASA's NSSDC Master Catalog

Two Line Element Set (TLE):
1 44791U 98067QW  21055.57850413  .00016092  00000-0  22443-3 0  9997
2 44791  51.6410 166.3993 0005988 205.7432 154.3263 15.57049527 71843
Source of the keplerian elements: AFSPC